EW0636 Weather Reports


Display with metric or nautical units.
time (UTC)temp
F
wind
direction
speed
MPH
gust
MPH
rain 1hr
in
rain 24hr
in
rain mn
in
humidity
%
barometer
mb
20260905234521 92 310 0.0 0.0 0.00 0.00 0.00 57 1008.8
20260905233017 92 315 0.0 0.0 0.00 0.00 0.00 57 1008.7
20260905231515 93 315 0.0 0.0 0.00 0.00 0.00 56 1008.8
20260905230008 94 315 0.0 0.0 0.00 0.00 0.00 54 1008.7
20260905224504 96 315 1.0 5.0 0.00 0.00 0.00 52 1008.6
20260905223100 97 319 0.0 3.0 0.00 0.00 0.00 48 1008.6
20260905221555 96 319 1.0 5.0 0.00 0.00 0.00 50 1008.6
20260905220051 95 319 0.0 0.0 0.00 0.00 0.00 53 1008.6
20260905214546 96 319 1.0 4.0 0.00 0.00 0.00 49 1008.7
20260905213042 97 319 0.0 0.0 0.00 0.00 0.00 50 1008.7
20260905211549 96 319 0.0 2.0 0.00 0.00 0.00 49 1008.8
20260905210033 98 319 0.0 1.0 0.00 0.00 0.00 50 1008.9
20260905204535 97 319 0.0 4.0 0.00 0.00 0.00 47 1009.1
20260905203024 98 325 0.0 6.0 0.00 0.00 0.00 45 1009.3
20260905201519 98 332 0.0 8.0 0.00 0.00 0.00 46 1009.6
20260905200025 98 9 0.0 5.0 0.00 0.00 0.00 45 1009.7
20260905194513 97 5 0.0 0.0 0.00 0.00 0.00 45 1009.9
20260905193009 99 5 0.0 3.0 0.00 0.00 0.00 45 1010.0
20260905191502 98 194 0.0 4.0 0.00 0.00 0.00 45 1010.4
20260905190057 99 325 0.0 2.0 0.00 0.00 0.00 44 1010.5
20260905184611 98 325 0.0 6.0 0.00 0.00 0.00 45 1010.6
20260905183051 97 321 0.0 6.0 0.00 0.00 0.00 48 1010.8
20260905181555 98 339 1.0 8.0 0.00 0.00 0.00 47 1011.0
20260905180045 97 295 0.0 5.0 0.00 0.00 0.00 49 1011.2
20260905174536 97 345 0.0 4.0 0.00 0.00 0.00 52 1011.4
20260905173033 96 322 1.0 9.0 0.00 0.00 0.00 51 1011.5
20260905171526 95 333 3.0 8.0 0.00 0.00 0.00 51 1011.8
20260905170022 96 92 0.0 3.0 0.00 0.00 0.00 53 1011.8
20260905164518 94 329 0.0 5.0 0.00 0.00 0.00 55 1011.9
20260905163012 94 223 1.0 4.0 0.00 0.00 0.00 55 1012.1
20260905161508 95 330 0.0 0.0 0.00 0.00 0.00 56 1012.2
20260905160004 95 328 0.0 1.0 0.00 0.00 0.00 58 1012.1
20260905154616 93 328 2.0 8.0 0.00 0.00 0.00 57 1012.4
20260905153102 93 329 0.0 4.0 0.00 0.00 0.00 58 1012.5
20260905151551 93 51 0.0 3.0 0.00 0.00 0.00 64 1012.6
20260905150047 91 53 0.0 1.0 0.00 0.00 0.00 66 1012.6
20260905144543 90 59 0.0 4.0 0.00 0.00 0.00 65 1012.7
20260905143038 89 60 0.0 3.0 0.00 0.00 0.00 70 1012.7
20260905141534 87 61 0.0 0.0 0.00 0.00 0.00 69 1012.7
20260905140030 85 225 0.0 0.0 0.00 0.00 0.00 71 1012.9
20260905134525 83 225 0.0 0.0 0.00 0.00 0.00 68 1012.9
20260905133035 81 302 0.0 0.0 0.00 0.00 0.00 62 1013.0
20260905131516 80 302 0.0 0.0 0.00 0.00 0.00 53 1013.0
20260905130014 79 269 0.0 0.0 0.00 0.00 0.00 30 1013.1
20260905124507 77 269 0.0 0.0 0.00 0.00 0.00 1 1013.1
20260905123002 75 269 0.0 0.0 0.00 0.00 0.00 1 1012.9
20260905121602 74 346 0.0 0.0 0.00 0.00 0.00 1 1012.8
20260905120053 73 188 0.0 0.0 0.00 0.00 0.00 1 1012.6
20260905114549 73 188 0.0 0.0 0.00 0.00 0.00 1 1012.6
20260905113050 73 188 0.0 0.0 0.00 0.00 0.00 1 1012.6
20260905111607 73 188 0.0 0.0 0.00 0.00 0.00 1 1012.4
20260905110041 73 188 0.0 0.0 0.00 0.00 0.00 1 1012.2
20260905104531 74 96 0.0 0.0 0.00 0.00 0.00 1 1012.1
20260905103028 74 96 0.0 0.0 0.00 0.00 0.00 1 1012.0
20260905101525 74 96 0.0 0.0 0.00 0.00 0.00 1 1011.9
20260905100021 74 96 0.0 0.0 0.00 0.00 0.00 1 1011.8
20260905094515 74 96 0.0 0.0 0.00 0.00 0.00 1 1011.8
20260905093010 74 96 0.0 0.0 0.00 0.00 0.00 19 1011.7
20260905091507 75 96 0.0 0.0 0.00 0.00 0.00 16 1011.4
20260905090014 75 96 0.0 0.0 0.00 0.00 0.00 9 1011.3
20260905084503 75 96 0.0 0.0 0.00 0.00 0.00 23 1011.4
20260905083005 75 96 0.0 0.0 0.00 0.00 0.00 24 1011.5
20260905081600 75 96 0.0 0.0 0.00 0.00 0.00 36 1011.5
20260905080113 76 96 0.0 0.0 0.00 0.00 0.00 34 1011.5
20260905074558 76 96 0.0 0.0 0.00 0.00 0.00 37 1011.5
20260905073058 76 96 0.0 0.0 0.00 0.00 0.00 37 1011.5
20260905071556 76 96 0.0 0.0 0.00 0.00 0.00 38 1011.6
20260905070052 76 96 0.0 0.0 0.00 0.00 0.00 47 1011.7
20260905064551 76 96 0.0 0.0 0.00 0.00 0.00 50 1011.8
20260905063047 76 96 0.0 0.0 0.00 0.00 0.00 52 1012.0
20260905061545 76 96 0.0 0.0 0.00 0.00 0.00 56 1012.1
20260905060043 77 96 0.0 0.0 0.00 0.00 0.00 65 1012.0
20260905054540 77 96 0.0 0.0 0.00 0.00 0.00 70 1012.1
20260905053042 78 96 0.0 1.0 0.00 0.00 0.00 70 1012.1
20260905051543 78 96 0.0 0.0 0.00 0.00 0.00 73 1012.0
20260905050034 79 96 0.0 0.0 0.00 0.00 0.00 75 1012.1
20260905044536 79 96 0.0 0.0 0.00 0.00 0.00 77 1012.0
20260905043030 80 96 0.0 0.0 0.00 0.00 0.00 77 1012.0
20260905041530 80 96 0.0 0.0 0.00 0.00 0.00 77 1012.1
20260905040032 80 96 0.0 0.0 0.00 0.00 0.00 77 1012.2
20260905034533 81 96 0.0 0.0 0.00 0.00 0.00 78 1012.1
20260905033100 81 96 0.0 0.0 0.00 0.00 0.00 77 1012.2
20260905031527 81 96 0.0 0.0 0.00 0.00 0.00 77 1012.4
20260905030037 81 96 0.0 0.0 0.00 0.00 0.00 77 1012.5
20260905024527 82 96 0.0 0.0 0.00 0.00 0.00 76 1012.6
20260905023026 83 96 0.0 0.0 0.00 0.00 0.00 75 1012.5
20260905021525 83 96 0.0 0.0 0.00 0.00 0.00 74 1012.4
20260905020025 83 96 0.0 0.0 0.00 0.00 0.00 74 1012.4
20260905014525 83 96 0.0 0.0 0.00 0.00 0.00 74 1012.3
20260905013024 84 96 0.0 0.0 0.00 0.00 0.00 74 1012.0
20260905011523 85 96 0.0 0.0 0.00 0.00 0.00 70 1011.9
20260905010023 87 96 0.0 0.0 0.00 0.00 0.00 66 1011.8
20260905004525 88 96 0.0 0.0 0.00 0.00 0.00 65 1011.7
20260905003023 90 96 0.0 0.0 0.00 0.00 0.00 61 1011.6
20260905001524 91 96 0.0 0.0 0.00 0.00 0.00 59 1011.5
20260905000021 92 96 0.0 0.0 0.00 0.00 0.00 58 1011.5